TimeCST,TemperatureF,Dew PointF,Humidity,Sea Level PressureIn,VisibilityMPH,Wind Direction,Wind SpeedMPH,Gust SpeedMPH,PrecipitationIn,Events,Conditions,WindDirDegrees,DateUTC
12:56 AM,-9999,-9999,N/A,30.00,-9999.0,North,-9999.0,-,N/A,,Unknown,0,2013-01-02 06:56:00
1:56 AM,-9999,-9999,N/A,30.01,-9999.0,North,-9999.0,-,N/A,,Unknown,0,2013-01-02 07:56:00
2:56 AM,-9999,-9999,N/A,30.03,-9999.0,North,-9999.0,-,N/A,,Unknown,0,2013-01-02 08:56:00
3:56 AM,-9999,-9999,N/A,30.01,-9999.0,North,-9999.0,-,N/A,,Unknown,0,2013-01-02 09:56:00
4:56 AM,-9999,-9999,N/A,30.04,-9999.0,North,-9999.0,-,N/A,,Unknown,0,2013-01-02 10:56:00
5:56 AM,-9999,-9999,N/A,30.05,-9999.0,North,-9999.0,-,N/A,,Unknown,0,2013-01-02 11:56:00
6:56 AM,-9999,-9999,N/A,30.07,-9999.0,North,-9999.0,-,N/A,,Unknown,0,2013-01-02 12:56:00
7:56 AM,-9999,-9999,N/A,30.09,-9999.0,North,-9999.0,-,N/A,,Unknown,0,2013-01-02 13:56:00
8:56 AM,-9999,-9999,N/A,30.11,-9999.0,North,-9999.0,-,N/A,,Unknown,0,2013-01-02 14:56:00
9:32 AM,55.4,46.4,72,30.12,10.0,North,12.7,-,N/A,,Mostly Cloudy,360,2013-01-02 15:32:00
9:42 AM,53.6,46.4,77,30.12,10.0,North,9.2,-,N/A,,Overcast,360,2013-01-02 15:42:00
9:56 AM,55.0,46.9,74,30.12,10.0,North,11.5,-,N/A,,Overcast,10,2013-01-02 15:56:00
10:56 AM,55.9,46.9,72,30.11,10.0,North,12.7,-,N/A,,Overcast,350,2013-01-02 16:56:00
11:56 AM,57.0,46.9,69,30.09,10.0,NNW,12.7,-,N/A,,Overcast,340,2013-01-02 17:56:00
12:56 PM,55.0,46.0,72,30.06,10.0,North,10.4,-,N/A,,Overcast,350,2013-01-02 18:56:00
1:56 PM,54.0,46.0,75,30.06,10.0,NNW,11.5,-,N/A,,Unknown,340,2013-01-02 19:56:00
2:56 PM,54.0,46.0,75,30.07,10.0,North,10.4,-,N/A,,Overcast,350,2013-01-02 20:56:00
3:56 PM,53.1,45.0,74,30.08,-9999.0,North,-9999.0,-,N/A,,Unknown,0,2013-01-02 21:56:00
4:56 PM,-9999,-9999,N/A,30.11,-9999.0,North,-9999.0,-,N/A,,Unknown,0,2013-01-02 22:56:00
5:56 PM,-9999,-9999,N/A,30.14,-9999.0,North,-9999.0,-,N/A,,Unknown,0,2013-01-02 23:56:00
6:56 PM,-9999,-9999,N/A,30.15,-9999.0,North,-9999.0,-,N/A,,Unknown,0,2013-01-03 00:56:00
7:56 PM,-9999,-9999,N/A,30.15,-9999.0,North,-9999.0,-,N/A,,Unknown,0,2013-01-03 01:56:00
8:56 PM,-9999,-9999,N/A,30.16,-9999.0,North,-9999.0,-,N/A,,Unknown,0,2013-01-03 02:56:00
9:56 PM,-9999,-9999,N/A,30.16,-9999.0,North,-9999.0,-,N/A,,Unknown,0,2013-01-03 03:56:00
10:56 PM,-9999,-9999,N/A,30.16,-9999.0,North,-9999.0,-,N/A,,Unknown,0,2013-01-03 04:56:00
11:56 PM,-9999,-9999,N/A,30.17,-9999.0,North,-9999.0,-,N/A,,Unknown,0,2013-01-03 05:56:00